Location: Roland
(31.1349°N, 85.4372°W)
Time: 19:45:00
(UTC+00:00)

SR - Pass Details

Date: 16 April 2021
Orbit: 573 x 882 km, 66.7° (Epoch: 13 May)

Event Time Altitude Azimuth Distance (km) Brightness Sun altitude
Rises 00:20:27 0° 323° (NW) 3,418 ? -2.9°
Reaches altitude 10° 00:23:14 10° 313° (NW) 2,443 ? -3.5°
Maximum altitude 00:28:07 31° 253° (WSW) 1,371 ? -4.5°
Drops below altitude 10° 00:32:39 10° 193° (SSW) 2,266 ? -5.5°
Sets 00:35:10 0° 182° (S) 3,132 ? -6.0°
